Location: Krakow
(50.0830°N, 19.9170°E)
Time: 21:00:41
(UTC+01:00)

Altair - Pass Details

Date: 05 December 2023
Orbit: 1501 x 1682 km, 47.2° (Epoch: 03 March)

Event Time Altitude Azimuth Distance (km) Brightness Sun altitude
Rises 12:15:37 0° 279° (W) 4,741 10.1 16.9°
Reaches altitude 10° 12:18:45 10° 277° (W) 3,734 9.7 16.8°
Maximum altitude 12:27:58 65° 199° (SSW) 1,644 8.4 16.5°
Drops below altitude 10° 12:36:59 10° 120° (ESE) 3,649 9.7 16.1°
Sets 12:40:01 0° 117° (ESE) 4,628 10.2 15.9°
